Location: Fours
(44.3167°N, 6.7000°E)
Time: 11:12:40
(UTC+00:00)

H-2A R/B - Pass Details

Date: 16 October 2021
Orbit: 528 x 650 km, 98.3° (Epoch: 03 December)

Event Time Altitude Azimuth Distance (km) Brightness Sun altitude
Rises 18:50:07 0° 189° (S) 2,938 6.0 -22.7°
Reaches altitude 10° 18:52:32 10° 199° (SSW) 2,022 5.3 -23.1°
Maximum altitude 18:56:28 32° 263° (W) 1,093 4.4 -23.8°
Drops below altitude 10° 19:00:21 10° 326° (NW) 1,981 5.7 -24.5°
Sets 19:02:42 0° 337° (NNW) 2,870 6.5 -24.9°
